Regional Weather Roundup
Issued by NWS

Home | Current Version | Previous Version | Graphics & Text | Print | Product List | Glossary On
Versions: 1 2 3 4 5 6 7 8 9 10 11 12 13 14 15 16 17 18 19 20 21 22 23 24 25 26 27 28 29 30 31 32 33 34 35 36 37 38 39 40 41 42 43 44 45 46 47 48 49 50
000
ASUS43 KDMX 280607
RWRIA

WEATHER ROUNDUP FOR IOWA
NATIONAL WEATHER SERVICE DES MOINES IA
1200 AM CST FRI NOV 28 2014

NOTE: "FAIR" INDICATES FEW OR NO CLOUDS BELOW 12,000 FEET WITH NO
SIGNIFICANT WEATHER AND/OR OBSTRUCTIONS TO VISIBILITY.

* - THESE STATIONS ARE NOT NWS STATIONS...THUS NOT UNDER NWS
QUALITY CONTROL.  THEY ALSO DO NOT REPORT WEATHER SUCH
AS PRECIPITATION OR FOG.

IAZ001>003-012>014-020>022-031>034-043>046-280700-
   NORTHWEST IOWA

CITY           SKY/WX    TMP DP  RH WIND       PRES   REMARKS
CARROLL *      CLOUDY    14   9  79 SE13      30.16F WCI   0
CHEROKEE *     MOCLDY    16  11  82 S20       30.07F WCI  -1
DENISON *      CLOUDY    21  16  79 S16       30.10F WCI   7
LE MARS *      PTCLDY    19  16  86 S15       30.05F WCI   5
ORANGE CITY *  CLEAR     18  12  79 SE9       30.04F WCI   6
SHELDON *      PTCLDY    16   9  73 SE18      30.06F WCI  -1
SIOUX CITY     PTCLDY    23  15  71 S15G23    30.06F WCI  10
6HR MIN TEMP:  19; 6HR MAX TEMP:  23;

SPENCER        CLOUDY    12   5  73 SE21      30.08F WCI  -7
6HR MIN TEMP:   7; 6HR MAX TEMP:  12; 6HR PCP: TRACE;

STORM LAKE *   CLOUDY    12   7  79 SE22      30.09F WCI  -7
$$

IAZ055>058-069>071-079>083-090>094-280700-
   SOUTHWEST IOWA

CITY           SKY/WX    TMP DP  RH WIND       PRES   REMARKS
ATLANTIC *     CLOUDY    23  18  80 S8        30.16F WCI  14
AUDUBON *      MOCLDY    21  14  73 S12       30.15F WCI   9
CLARINDA *     CLEAR     27  21  80 SE8       30.21F WCI  18
COUNCIL BLFS * CLEAR     23  21  93 SE14G22   30.11F WCI  11
CRESTON *      CLEAR     23  18  80 SE14      30.20F WCI  11
HARLAN  *      CLOUDY    23  19  86 S13G21    30.17F WCI  11
LAMONI         MOCLDY    23  18  81 SE6       30.26R WCI  16
6HR MIN TEMP:  20; 6HR MAX TEMP:  24;

RED OAK *      CLEAR     25  19  80 SE12      30.18F WCI  14
SHENANDOAH *   CLEAR     28  23  80 SE15      30.17F WCI  17
$$

IAZ047>049-059>061-072>074-084-280700-
   CENTRAL IOWA

CITY           SKY/WX    TMP DP  RH WIND       PRES   REMARKS
AMES           MOCLDY    11   0  61 SE10      30.25F WCI  -3
6HR MIN TEMP:   8; 6HR MAX TEMP:  11;

ANKENY *       CLEAR     10   3  72 SE12      30.26F WCI  -4
CHARITON *     MOCLDY    18  10  73 SE9       30.27F WCI   6
DES MOINES     MOCLDY    14   5  67 SE10      30.27F WCI   1
6HR MIN TEMP:  13; 6HR MAX TEMP:  15; 6HR PCP: TRACE;

GRINNELL*      PTCLDY    12   1  62 SE9       30.28F WCI   0
KNOXVILLE *    MOCLDY    14   3  62 SE10      30.27F WCI   1
MARSHALLTOWN   CLOUDY    12   0  58 SE12      30.27F WCI  -2
6HR MIN TEMP:   3; 6HR MAX TEMP:  12;

PELLA *          N/A     13   5  70 SE9       30.31F WCI   1
PERRY *          N/A     12   7  79 SE13      30.21F WCI  -3
$$

IAZ004>006-015-016-023>025-035-036-280700-
   NORTH CENTRAL IOWA

CITY           SKY/WX    TMP DP  RH WIND       PRES   REMARKS
ALGONA *       CLOUDY    12   1  62 SE16G23   30.17F WCI  -4
CLARION *      CLOUDY    12   1  62 SE14G21   30.21F WCI  -3
ESTHERVILLE    CLOUDY     9   3  77 SE22      30.10F WCI -11
6HR MIN TEMP:   2; 6HR MAX TEMP:   9;

FORT DODGE *   PTCLDY    12   1  62 SE8       30.20F WCI   1
MASON CITY     CLOUDY    10   3  73 SE14      30.25F WCI  -6
6HR MIN TEMP:   3; 6HR MAX TEMP:  10; 6HR PCP: TRACE;

FOREST CITY *  CLOUDY    12   7  79 SE12      30.21F WCI  -2
IOWA FALLS *   CLOUDY    12   1  62 SE12      30.24F WCI  -2
$$

IAZ007>011-017>019-026>030-037>042-050>054-066-280700-
   NORTHEAST IOWA

CITY           SKY/WX    TMP DP  RH WIND       PRES   REMARKS
CEDAR RAPIDS   CLOUDY    12   6  77 SE8       30.33F WCI   0
6HR MIN TEMP:   4; 6HR MAX TEMP:  12; 6HR PCP: TRACE;

CHARLES CITY * FLURRIES  10   1  67 SE10      30.27F WCI  -3
CLINTON *      CLOUDY    12   5  73 SW5       30.41S WCI   4
DECORAH *      CLOUDY    10   1  67 S7        30.28F WCI   0
DUBUQUE        CLOUDY    12   4  70 S7        30.34S WCI   1
6HR MIN TEMP:   5; 6HR MAX TEMP:  12;

MONTICELLO *   CLOUDY    12   5  73 S6        30.35F WCI   3
OELWEIN *      FLURRIES  12   3  67 SE10      30.30F WCI  -1
WATERLOO       CLOUDY    12   4  70 S9        30.30F WCI   0
6HR MIN TEMP:   3; 6HR MAX TEMP:  12; 6HR PCP: TRACE;

$$

IAZ064-065-067-068-078-280700-
   EAST CENTRAL IOWA

CITY           SKY/WX    TMP DP  RH WIND       PRES   REMARKS
DAVENPORT      CLOUDY    13   4  67 SW5       30.39F WCI   5
6HR MIN TEMP:   5; 6HR MAX TEMP:  13;

IOWA CITY      FLURRIES  12   6  77 E5        30.38F WCI   4
6HR MIN TEMP:   6; 6HR MAX TEMP:  12; 6HR PCP: TRACE;

MT. PLEASANT * MOCLDY    13   6  72 SE5       30.36F WCI   5
MUSCATINE *    FLURRIES  12   7  79 SE3       30.40F
QUAD CITIES    CLOUDY    13   6  74 CALM      30.39F
6HR MIN TEMP:   9; 6HR MAX TEMP:  15;

$$

IAZ062-063-075>077-085>089-095>099-280700-
   SOUTHEAST IOWA

CITY           SKY/WX    TMP DP  RH WIND       PRES   REMARKS
BURLINGTON     MOCLDY    14   7  73 E7        30.37F WCI   4
6HR MIN TEMP:   4; 6HR MAX TEMP:  14;

FAIRFIELD *    CLOUDY    14   3  62 SE6       30.35S WCI   5
FORT MADISON * MOCLDY    16  10  79 SE6       30.36F WCI   7
KEOKUK *       MOCLDY    18   7  62 SE7       30.37F WCI   8
OSKALOOSA *      N/A     13   6  76 SE9       30.32F WCI   0
CENTERVILLE *    N/A     18  14  86 SE7       30.32S WCI   8
OTTUMWA        MOCLDY    14   5  67 SE8       30.33F WCI   3
6HR MIN TEMP:   8; 6HR MAX TEMP:  14;

WASHINGTON *   CLOUDY    12   9  85 SE7       30.36S WCI   2
$$

ABBREVIATIONS USED IN REMARKS
   TC - TEMPERATURES IN CELSIUS
  WCI - WIND CHILL INDEX
   HX - HEAT INDEX
  VSB - VISIBILITY
$$




USA.gov is the U.S. government's official web portal to all federal, state and local government web resources and services.